Naples, Italy

9:18 PM CET on February 19, 2018 (GMT +0100)
Capodichino Mil

Weather History for LIRN - December, 2013

Change the Weather History Date:

Tuesday, December 31, 2013

  Actual Average Record
Temperature  
Mean Temperature 56 °F -  
Max Temperature 61 °F 54 °F 104 °F (1998)
Min Temperature 50 °F 39 °F 28 °F (2014)
Degree Days  
Heating Degree Days 10    
Growing Degree Days 6 (Base 50)    
Moisture  
Dew Point 44 °F    
Average Humidity 68    
Maximum Humidity 77    
Minimum Humidity 45    
Precipitation  
Precipitation 0.00 in 0.14 in - ()
Sea Level Pressure  
Sea Level Pressure 30.05 in    
Wind  
Wind Speed 7 mph ()    
Max Wind Speed 13 mph    
Max Gust Speed -    
Visibility 7.3 miles    
Events      
Averages and records for this station are not official NWS values.
T = Trace of Precipitation, MM = Missing Value Source: Averaged Metar Reports

Daily Weather History Graph

Daily Weather History Graph

Search for Another Location

Airport or City:

Trip Planner

Search our weather history database for the weather conditions in past years. The results will help you decide how hot, cold, wet, or windy it might be!

Date:

Astronomy

Dec. 31, 2013 Rise Set
Actual Time 7:27 AM CET 4:44 PM CET
Civil Twilight 6:56 AM CET 5:15 PM CET
Nautical Twilight 6:21 AM CET 5:50 PM CET
Astronomical Twilight 5:48 AM CET 6:23 PM CET
Moon 6:01 AM CET (12/31) 4:02 PM CET (12/31)
Length of Visible Light 10h 19m
Length of Day
9h 17m
Waning Crescent, 2% of the Moon is Illuminated
Dec 31
Waning Crescent
Jan 1
New
Jan 8
First Quarter
Jan 16
Full
Jan 24
Last Quarter

Hourly Weather History & Observations

Time (CET) Temp. Dew Point Humidity Pressure Visibility Wind Dir Wind Speed Gust Speed Precip Events Conditions
12:20 AM 53.6 °F 46.4 °F 77% 30.06 in 6.2 mi NNE 4.6 mph - N/A   Scattered Clouds
12:50 AM 53.6 °F 46.4 °F 77% 30.06 in 6.2 mi NE 4.6 mph - N/A   Scattered Clouds
1:00 AM 53 °F 46 °F 71% 30.09 in 6 mi ENE 5.8 mph - -   Partly Cloudy
1:20 AM 53.6 °F 46.4 °F 77% 30.06 in 6.2 mi ENE 5.8 mph - N/A   Scattered Clouds
1:50 AM 53.6 °F 46.4 °F 77% 30.06 in 6.2 mi NE 4.6 mph - N/A   Scattered Clouds
2:20 AM 53.6 °F 44.6 °F 72% 30.06 in 6.2 mi ENE 8.1 mph - N/A   Scattered Clouds
2:50 AM 53.6 °F 44.6 °F 72% 30.06 in 6.2 mi NE 8.1 mph - N/A   Scattered Clouds
3:20 AM 53.6 °F 44.6 °F 72% 30.06 in 6.2 mi NE 10.4 mph - N/A   Scattered Clouds
3:50 AM 53.6 °F 44.6 °F 72% 30.06 in 6.2 mi NE 6.9 mph - N/A   Scattered Clouds
4:00 AM 53 °F 45 °F 67% 30.08 in 6 mi NE 5.8 mph - -   Partly Cloudy
4:20 AM 51.8 °F 44.6 °F 76% 30.06 in - NE 6.9 mph - N/A   Clear
4:50 AM 53.6 °F 44.6 °F 72% 30.06 in - NE 9.2 mph - N/A   Clear
5:20 AM 53.6 °F 44.6 °F 72% 30.04 in - ENE 10.4 mph - N/A   Clear
5:50 AM 51.8 °F 44.6 °F 76% 30.04 in - NE 9.2 mph - N/A   Clear
6:20 AM 51.8 °F 44.6 °F 76% 30.04 in - NE 9.2 mph - N/A   Clear
6:50 AM 51.8 °F 42.8 °F 71% 30.06 in - North 6.9 mph - N/A   Clear
7:20 AM 51.8 °F 42.8 °F 71% 30.06 in 6.2 mi NNE 8.1 mph - N/A   Scattered Clouds
7:50 AM 51.8 °F 42.8 °F 71% 30.06 in 6.2 mi NNE 8.1 mph - N/A   Scattered Clouds
8:20 AM 51.8 °F 42.8 °F 71% 30.06 in 6.2 mi NNE 9.2 mph - N/A   Scattered Clouds
8:50 AM 53.6 °F 44.6 °F 72% 30.06 in 6.2 mi NNE 9.2 mph - N/A   Scattered Clouds
9:20 AM 53.6 °F 44.6 °F 72% 30.06 in 6.2 mi NE 8.1 mph - N/A   Scattered Clouds
9:50 AM 57.2 °F 46.4 °F 67% 30.06 in 6.2 mi NE 11.5 mph - N/A   Scattered Clouds
10:00 AM 56 °F 45 °F 57% 30.09 in 12 mi NE 11.5 mph - -   Partly Cloudy
10:20 AM 57.2 °F 44.6 °F 63% 30.09 in 6.2 mi NE 11.5 mph - N/A   Mostly Cloudy
10:50 AM 57.2 °F 44.6 °F 63% 30.06 in 6.2 mi NE 11.5 mph - N/A   Mostly Cloudy
11:20 AM 57.2 °F 42.8 °F 59% 30.06 in 6.2 mi ENE 12.7 mph - N/A   Mostly Cloudy
11:50 AM 59.0 °F 44.6 °F 59% 30.06 in 6.2 mi NE 10.4 mph - N/A   Scattered Clouds
12:20 PM 60.8 °F 44.6 °F 55% 30.04 in 6.2 mi NNE 10.4 mph - N/A   Scattered Clouds
12:50 PM 60.8 °F 44.6 °F 55% 30.04 in - NNE 10.4 mph - N/A   Clear
1:00 PM 60 °F 44 °F 45% 30.04 in 12 mi NNE 11.5 mph - -  
1:20 PM 59.0 °F 44.6 °F 59% 30.04 in - NNE 11.5 mph - N/A   Clear
1:50 PM 60.8 °F 44.6 °F 55% 30.01 in - NE 9.2 mph - N/A   Clear
2:20 PM 60.8 °F 44.6 °F 55% 30.01 in - NNE 10.4 mph - N/A   Clear
2:50 PM 59.0 °F 44.6 °F 59% 30.01 in - NNE 10.4 mph - N/A   Clear
3:20 PM 59.0 °F 44.6 °F 59% 30.04 in - ENE 10.4 mph - N/A   Clear
3:50 PM 57.2 °F 44.6 °F 63% 30.04 in - NE 11.5 mph - N/A   Clear
4:00 PM 58 °F 44 °F 49% 30.04 in 12 mi ENE 10.4 mph - -  
4:20 PM 57.2 °F 44.6 °F 63% 30.04 in - NE 9.2 mph - N/A   Clear
4:50 PM 55.4 °F 44.6 °F 67% 30.04 in - NE 8.1 mph - N/A   Clear
5:20 PM 53.6 °F 42.8 °F 67% 30.04 in - NE 6.9 mph - N/A   Clear
5:50 PM 51.8 °F 42.8 °F 71% 30.04 in - NNE 6.9 mph - N/A   Clear
6:20 PM 51.8 °F 42.8 °F 71% 30.04 in - NNE 6.9 mph - N/A   Clear
6:50 PM 51.8 °F 42.8 °F 71% 30.04 in - North 6.9 mph - N/A   Clear
7:00 PM 52 °F 43 °F 63% 30.06 in 12 mi NNE 6.9 mph - -  
7:20 PM 51.8 °F 42.8 °F 71% 30.06 in - North 5.8 mph - N/A   Clear
7:50 PM 51.8 °F 42.8 °F 71% 30.06 in - North 6.9 mph - N/A   Clear
8:20 PM 51.8 °F 42.8 °F 71% 30.06 in - North 6.9 mph - N/A   Clear
8:50 PM 51.8 °F 42.8 °F 71% 30.06 in - North 6.9 mph - N/A   Clear
9:20 PM 50.0 °F 42.8 °F 76% 30.06 in - North 5.8 mph - N/A   Clear
9:50 PM 50.0 °F 42.8 °F 76% 30.06 in - North 5.8 mph - N/A   Clear
10:00 PM 50 °F 43 °F 68% 30.07 in 12 mi North 5.8 mph - -  
10:20 PM 50.0 °F 42.8 °F 76% 30.06 in - North 5.8 mph - N/A   Clear
10:50 PM 50.0 °F 42.8 °F 76% 30.06 in - North 6.9 mph - N/A   Clear
11:20 PM 50.0 °F 42.8 °F 76% 30.06 in - North 6.9 mph - N/A   Clear
11:50 PM 50.0 °F 42.8 °F 76% 30.04 in - NNW 5.8 mph - N/A   Clear